Weather in Saint Paul

United States     44°56′34″N   93°06′06″W
temp.,
°C
wind,
m/s
gust,
m/s
humid.,
%
clouds,
%
prec.,
mm/h
press.,
hPa
HPBL,
m
18 september, sat
sat1801:00+12ne11515 0.0 102315
04:00+11e2362100 0.0 102468
07:00+10se256615 0.0 1024120
10:00+17sse47475 0.0 1023406
13:00+23s56275 0.0 10201059
16:00+25s68280 0.0 10171265
19:00+22sse510472 0.0 1016505
22:00+20sse515510 0.0 1015430
19 september, sun
sun1901:00+20sse515540 0.0 1014415
04:00+21s517710 0.0 1013646
07:00+21s516750 0.0 1013632
10:00+26s7155844 0.0 1012885
13:00+31ssw8133895 0.0 10091686
16:00+32s71231100 0.0 10072215
19:00+29s6123848 0.0 10071106
22:00+25s61547100 0.0 1008817
20 september, mon
mon2001:00+25s7165219 0.0 1007936
04:00+23s7166539 0.0 1006854
07:00+22s61573100 0.0 1006770
10:00+21s61386100 1.0 1006837
13:00+21ssw61293100 3.8 1005895
16:00+15nw4993100 16.2 1008538
19:00+14nnw61292100 18.1 1011774
22:00+13nnw4129033 0.0 1014703
21 september, tue
tue2101:00+12nnw311820 0.0 1016399
04:00+11nnw27860 0.0 1018198
07:00+10nw27861 0.0 1020198
10:00+15nnw36571 0.0 1022494
13:00+20nnw47375 0.0 10221793
16:00+20nnw58359 0.0 10222515
19:00+17n364651 0.0 1022426
22:00+13nne4105875 0.0 1025364
22 september, wed
wed2201:00+12nne27615 0.0 1026312
04:00+9nne12700 0.0 102672
07:00+8ene11730 0.0 102743
10:00+14nnw11500 0.0 1028464
13:00+19nw12350 0.0 10261396
16:00+20nw11300 0.0 10241615
19:00+16se24440 0.0 102392
22:00+13sse36530 0.0 1023158